Location: Herm
(49.4830°N, 2.4500°W)
Time: 22:21:03
(UTC+01:00)

X-37B - Visible Passes

Search period start: 28 July 2021 00:00
Search period end: 07 August 2021 00:00
Orbit: 383 x 392 km, 45.0° (Epoch: 01 July)

Date Brightness Start Highest point End Pass type
(mag) Time Alt. Az. Time Alt. Az. Time Alt. Az.
03 Aug 2.8 04:11:51 13° S 04:12:50 14° SSE 04:14:37 10° ESE visible
04 Aug 2.0 04:48:15 12° SW 04:50:40 26° SSE 04:53:25 10° ESE visible
05 Aug 2.3 03:52:22 20° SSE 03:52:30 20° SSE 03:54:55 10° ESE visible
06 Aug 1.6 04:28:45 19° SW 04:30:24 32° S 04:33:19 10° ESE visible
